TimeCDT,TemperatureF,Dew PointF,Humidity,Sea Level PressureIn,VisibilityMPH,Wind Direction,Wind SpeedMPH,Gust SpeedMPH,PrecipitationIn,Events,Conditions,WindDirDegrees,DateUTC
12:54 AM,39.0,26.1,60,30.18,10.0,Calm,Calm,-,N/A,,Overcast,0,2012-11-03 05:54:00
1:54 AM,39.0,26.1,60,30.18,10.0,Calm,Calm,-,N/A,,Overcast,0,2012-11-03 06:54:00
2:54 AM,39.0,26.1,60,30.18,10.0,Calm,Calm,-,N/A,,Overcast,0,2012-11-03 07:54:00
3:54 AM,39.0,27.0,62,30.17,10.0,ENE,3.5,-,N/A,,Overcast,60,2012-11-03 08:54:00
4:54 AM,37.9,27.0,65,30.17,10.0,East,3.5,-,N/A,,Overcast,80,2012-11-03 09:54:00
5:54 AM,37.9,26.1,62,30.20,10.0,SE,3.5,-,N/A,,Overcast,130,2012-11-03 10:54:00
6:54 AM,37.9,27.0,65,30.20,10.0,SE,3.5,-,N/A,,Overcast,140,2012-11-03 11:54:00
7:54 AM,37.9,27.0,65,30.21,8.0,SE,3.5,-,N/A,,Overcast,140,2012-11-03 12:54:00
8:54 AM,39.0,28.0,65,30.24,10.0,Calm,Calm,-,N/A,,Overcast,0,2012-11-03 13:54:00
9:54 AM,39.9,27.0,60,30.24,10.0,SSE,6.9,-,N/A,,Overcast,160,2012-11-03 14:54:00
10:54 AM,42.1,28.0,58,30.24,10.0,South,4.6,-,N/A,,Overcast,170,2012-11-03 15:54:00
11:54 AM,44.1,27.0,51,30.24,10.0,South,6.9,-,N/A,,Overcast,180,2012-11-03 16:54:00
12:54 PM,45.0,26.1,48,30.24,10.0,SSW,3.5,-,N/A,,Overcast,210,2012-11-03 17:54:00
1:54 PM,45.0,26.1,48,30.23,10.0,South,3.5,-,N/A,,Overcast,180,2012-11-03 18:54:00
2:54 PM,46.0,26.1,46,30.22,10.0,WSW,4.6,-,N/A,,Overcast,240,2012-11-03 19:54:00
3:54 PM,46.0,26.1,46,30.22,10.0,Calm,Calm,-,N/A,,Overcast,0,2012-11-03 20:54:00
4:54 PM,46.0,26.1,46,30.22,10.0,Calm,Calm,-,N/A,,Overcast,0,2012-11-03 21:54:00
5:54 PM,46.0,26.1,46,30.21,10.0,Calm,Calm,-,N/A,,Overcast,0,2012-11-03 22:54:00
6:54 PM,43.0,27.0,53,30.23,10.0,North,3.5,-,N/A,,Mostly Cloudy,350,2012-11-03 23:54:00
7:54 PM,43.0,28.0,56,30.24,10.0,Calm,Calm,-,N/A,,Overcast,0,2012-11-04 00:54:00
8:54 PM,42.1,28.9,60,30.23,10.0,East,3.5,-,N/A,,Overcast,100,2012-11-04 01:54:00
9:54 PM,41.0,28.9,62,30.23,10.0,SE,3.5,-,N/A,,Overcast,130,2012-11-04 02:54:00
10:54 PM,41.0,28.9,62,30.23,10.0,SE,4.6,-,N/A,,Overcast,130,2012-11-04 03:54:00
11:54 PM,42.1,28.9,60,30.23,9.0,SSE,3.5,-,0.00,Rain,Light Rain,160,2012-11-04 04:54:00